College Station, AR

2:19 PM CDT on July 25, 2016 (GMT -0500)
Adams

Weather History for KLIT - July, 2013

Change the Weather History Date:

Saturday, July 27, 2013

  Actual Average Record
Temperature  
Mean Temperature 75 °F 83 °F  
Max Temperature 85 °F 93 °F 104 °F (1952)
Min Temperature 64 °F 74 °F 61 °F (1920)
Degree Days  
Heating Degree Days 0 0  
Month to date heating degree days 0 0  
Since 1 June heating degree days 0 0  
Since 1 July heating degree days 0 0  
Cooling Degree Days 10 18  
Month to date cooling degree days 416 479  
Year to date cooling degree days 1096 1185  
Since 1 June cooling degree days 845 904  
Growing Degree Days 26 (Base 50)    
Moisture  
Dew Point 66 °F    
Average Humidity 80    
Maximum Humidity 94    
Minimum Humidity 48    
Precipitation  
Precipitation 0.24 in 0.10 in 3.70 in (1891)
Month to date precipitation 3.09 2.90  
Year to date precipitation 30.22 28.45  
Snow  
Snow 0.00 in 0.00 in - ()
Month to date snowfall 0.0 0.0  
Since 1 June snowfall 0.0 0.0  
Since 1 July snowfall 0.0 0.0  
Snow Depth 0.00 in    
Sea Level Pressure  
Sea Level Pressure 29.98 in    
Wind  
Wind Speed 6 mph (NE)    
Max Wind Speed 10 mph    
Max Gust Speed -    
Visibility 7 miles    
Events Rain    
T = Trace of Precipitation, MM = Missing Value Source: NWS Daily Summary

Daily Weather History Graph

Daily Weather History Graph

Search for Another Location

Airport or City:

Trip Planner

Search our weather history database for the weather conditions in past years. The results will help you decide how hot, cold, wet, or windy it might be!

Date:

Astronomy

Jul. 27, 2013 Rise Set
Actual Time 6:15 AM CDT 8:15 PM CDT
Civil Twilight 5:47 AM CDT 8:43 PM CDT
Nautical Twilight 5:13 AM CDT 9:16 PM CDT
Astronomical Twilight 4:36 AM CDT 9:53 PM CDT
Moon 11:20 PM CDT (7/27) 11:39 AM CDT (7/27)
Length of Visible Light 14h 55m
Length of Day
13h 59m
Waning Gibbous, 70% of the Moon is Illuminated
Jul 27
Waning Gibbous
Jul 29
Last Quarter
Aug 6
New
Aug 14
First Quarter
Aug 20
Full

Hourly Weather History & Observations

Time (CDT) Temp. Heat Index Dew Point Humidity Pressure Visibility Wind Dir Wind Speed Gust Speed Precip Events Conditions
12:53 AM 68.0 °F - 64.0 °F 87% 30.00 in 6.0 mi North 8.1 mph - 0.00 in Rain Light Rain
1:53 AM 66.9 °F - 64.0 °F 90% 29.99 in 4.0 mi NNE 10.4 mph - 0.01 in Rain Light Rain
2:53 AM 66.9 °F - 64.9 °F 93% 29.99 in 6.0 mi NNE 4.6 mph - 0.01 in   Overcast
3:29 AM 66.2 °F - 64.4 °F 94% 29.98 in 4.0 mi NNE 8.1 mph - 0.01 in Rain Light Rain
3:53 AM 66.9 °F - 64.0 °F 90% 29.99 in 6.0 mi North 8.1 mph - 0.01 in Rain Light Rain
4:22 AM 66.2 °F - 64.4 °F 94% 29.98 in 2.5 mi North 4.6 mph - 0.05 in Rain Rain
4:37 AM 68.0 °F - 64.4 °F 88% 29.99 in 5.0 mi North 5.8 mph - 0.07 in Rain Light Rain
4:53 AM 68.0 °F - 66.0 °F 93% 29.99 in 3.0 mi NNW 3.5 mph - 0.11 in Rain Light Rain
5:13 AM 68.0 °F - 66.2 °F 94% 29.99 in 2.0 mi NE 6.9 mph - 0.10 in Rain Rain
5:29 AM 68.0 °F - 66.2 °F 94% 29.99 in 3.0 mi North 5.8 mph - 0.12 in Rain Light Rain
5:53 AM 68.0 °F - 66.0 °F 93% 30.00 in 4.0 mi North 3.5 mph - 0.12 in Rain Light Rain
6:05 AM 68.0 °F - 66.2 °F 94% 30.00 in 4.0 mi NE 3.5 mph - 0.00 in Rain Light Rain
6:15 AM 68.0 °F - 66.2 °F 94% 30.00 in 4.0 mi NE 4.6 mph - 0.00 in Rain Light Rain
6:26 AM 68.0 °F - 66.2 °F 94% 30.00 in 3.0 mi ENE 5.8 mph - 0.00 in Rain Light Rain
6:35 AM 66.2 °F - 64.4 °F 94% 30.00 in 4.0 mi East 9.2 mph - 0.01 in Rain Light Rain
6:53 AM 66.9 °F - 64.0 °F 90% 30.01 in 7.0 mi SE 4.6 mph - 0.02 in   Overcast
7:45 AM 69.8 °F - 66.2 °F 88% 30.02 in 5.0 mi NNE 5.8 mph - N/A   Overcast
7:53 AM 69.1 °F - 66.0 °F 90% 30.02 in 4.0 mi NNE 6.9 mph - N/A   Overcast
8:53 AM 70.0 °F - 66.9 °F 90% 30.02 in 5.0 mi NNE 5.8 mph - N/A   Overcast
9:37 AM 71.6 °F - 66.2 °F 83% 30.01 in 7.0 mi NNE 9.2 mph - N/A   Mostly Cloudy
9:53 AM 72.0 °F - 66.9 °F 84% 30.02 in 7.0 mi NNE 4.6 mph - N/A   Mostly Cloudy
10:53 AM 77.0 °F - 66.9 °F 71% 30.01 in 7.0 mi North 5.8 mph - N/A   Scattered Clouds
11:53 AM 80.1 °F 81.9 °F 64.9 °F 60% 30.00 in 10.0 mi ENE 8.1 mph - N/A   Scattered Clouds
12:53 PM 82.9 °F 85.0 °F 66.0 °F 56% 29.99 in 10.0 mi NNE 5.8 mph - N/A   Mostly Cloudy
1:53 PM 82.9 °F 84.6 °F 64.9 °F 54% 29.98 in 10.0 mi Variable 4.6 mph - N/A   Mostly Cloudy
2:53 PM 84.9 °F 86.6 °F 64.9 °F 51% 29.96 in 10.0 mi NE 5.8 mph - N/A   Mostly Cloudy
3:53 PM 87.1 °F 88.9 °F 64.9 °F 48% 29.94 in 10.0 mi Calm Calm - N/A   Scattered Clouds
4:53 PM 84.9 °F 87.1 °F 66.0 °F 53% 29.92 in 10.0 mi Variable 4.6 mph - N/A   Scattered Clouds
5:53 PM 82.9 °F 85.4 °F 66.9 °F 58% 29.91 in 10.0 mi South 5.8 mph - N/A   Scattered Clouds
6:53 PM 84.0 °F 86.5 °F 66.9 °F 56% 29.92 in 10.0 mi South 5.8 mph - N/A   Scattered Clouds
7:53 PM 82.0 °F 84.9 °F 68.0 °F 62% 29.93 in 10.0 mi SSE 3.5 mph - N/A   Scattered Clouds
8:53 PM 77.0 °F - 70.0 °F 79% 29.94 in 10.0 mi Calm Calm - N/A   Partly Cloudy
9:53 PM 75.9 °F - 69.1 °F 79% 29.95 in 10.0 mi SSE 4.6 mph - N/A   Partly Cloudy
10:53 PM 75.0 °F - 68.0 °F 79% 29.95 in 10.0 mi SSE 3.5 mph - N/A   Clear
11:53 PM 73.9 °F - 69.1 °F 85% 29.97 in 10.0 mi Calm Calm - N/A   Clear